Bonjour et bienvenue! Nous sommes le Mardi 12 Décembre 2017 - 04:34z -----------------Prochaine permanence le 04/01/2018 de 13h00 à 14h00 à l'ENAC - Accueil
 

/ Bienvenue sur la page de l'aéroclub de l'ENAC /

Bienvenue sur le Site

L'Aéroclub de l'ENAC est situé sur l'aérodrome de Balma Lasbordes, en bordure de la rocade Est, sortie route de Castres.

Dans cet aéroclub vous aurez l'occasion de côtoyer les étudiants, technicien, ingénieur ou pilote de ligne formés à l'ENAC, ainsi que d'autres membres venant de tous horizons professionnels.

Bien que portant le nom de l'ENAC, notre aéroclub est ouvert à toutes et tous! Alors n'hésitez pas!


Bonne visite !

 

Dernière modification par Sylvie B. le 12 Juin 2017


/ Les dernières news... /
(Cliquez sur la bannière défilante pour accéder aux news complètes)

- Permanences à l'ENAC -- Goodies ACENAC -- Départ autour du monde -- Centrage Avion -- ATIS Lasbordes au téléphone ! -


Météo à Blagnac (Source : NOAA)
2017/12/12 04:30 LFBO 120430Z AUTO 27009KT 9999 SCT020 BKN028 BKN037 05/02 Q1008 TEMPO BKN011 SCT020TCU

Les coordonnées de l'aéroclub
Aéroclub de l'ENAC
38 av Jean René Lagasse
Aérodrome de TOULOUSE LASBORDES
31130 BALMA

Tél & Fax: 05 61 20 67 34
Mail : ac.enac.secretariat (at) gmail.com
 


 
CSS Valide !